contact:dominique.lefevre@mio.osupytheas.fr, maurice.libes@osupytheas.fr, didier.mallarino@osupytheas.fr
Project:EMSO http://www.emso-fr.org/EMSO-France
Depth: 2436.0 m
Title:EMSO Ligure Ouest : Data MII capteur AQUADOPP
Date,Latitude,Longitude,X_East,Y_North,Z_Up,Amplitude_X,Amplitude_Y,Amplitude_Z,Batterie,SoundSpeed,Heading,Pitch,Roll,Pressure,TIS,Speed,Direction
, degrees North, degrees East, m.s-1, m.s-1,m.s-1, 1, 1, 1, Volt, m.s-1, degree, degree, degree, dbar, degree_C, m.s-1, degree
2020-10-05T00:04:03,42.805,6.029,-0.017,-0.024,-0.024,103.0,105.0,101.0,13.3,1505.3,324.5,-0.7,1.8,2470.436,13.31,0.029,215.3
2020-10-05T00:10:03,42.805,6.029,-0.023,-0.026,-0.03,103.0,105.0,102.0,13.4,1505.2,326.8,-0.8,1.8,2470.486,13.3,0.034,221.5
2020-10-05T00:13:03,42.805,6.029,0.006,-0.018,-0.016,103.0,104.0,101.0,13.4,1505.3,325.6,-0.7,1.8,2470.517,13.31,0.018,161.6
2020-10-05T00:16:03,42.805,6.029,0.011,-0.022,0.011,104.0,104.0,100.0,13.3,1505.3,325.8,-0.7,1.8,2470.5,13.31,0.024,153.4
2020-10-05T00:19:03,42.805,6.029,0.004,-0.032,0.005,101.0,104.0,102.0,13.4,1505.3,323.5,-0.7,1.8,2470.454,13.32,0.032,172.9
2020-10-05T00:22:03,42.805,6.029,-0.013,-0.034,0.005,103.0,104.0,102.0,13.4,1505.3,324.9,-0.7,1.9,2470.453,13.32,0.036,200.9
2020-10-05T00:25:03,42.805,6.029,0.008,-0.028,-0.002,103.0,105.0,100.0,13.3,1505.3,327.0,-0.7,1.8,2470.486,13.32,0.029,164.1
2020-10-05T00:28:03,42.805,6.029,0.013,-0.02,-0.025,102.0,106.0,101.0,13.4,1505.3,324.4,-0.7,1.8,2470.437,13.32,0.023,147.0
2020-10-05T00:31:03,42.805,6.029,-0.023,-0.039,-0.061,103.0,105.0,101.0,13.3,1505.3,324.1,-0.7,1.8,2470.457,13.32,0.045,210.5
2020-10-05T00:34:03,42.805,6.029,0.029,-0.031,-0.001,103.0,103.0,100.0,13.4,1505.3,327.1,-0.7,1.8,2470.412,13.32,0.042,136.9
2020-10-05T00:37:03,42.805,6.029,-0.015,-0.045,-0.026,102.0,103.0,101.0,13.4,1505.3,324.7,-0.7,1.8,2470.417,13.32,0.047,198.4
2020-10-05T00:40:03,42.805,6.029,0.0,-0.025,-0.001,104.0,104.0,100.0,13.4,1505.3,324.0,-0.7,1.8,2470.455,13.32,0.025,180.0
2020-10-05T00:43:03,42.805,6.029,0.011,-0.017,0.015,102.0,104.0,100.0,13.3,1505.3,327.3,-0.7,1.8,2470.388,13.33,0.02,147.1
2020-10-05T00:46:03,42.805,6.029,-0.01,-0.024,-0.042,103.0,103.0,101.0,13.4,1505.3,326.6,-0.7,1.8,2470.426,13.33,0.026,202.6
2020-10-05T00:49:03,42.805,6.029,-0.004,-0.048,-0.005,103.0,104.0,100.0,13.3,1505.3,326.9,-0.7,1.8,2470.403,13.33,0.048,184.8
2020-10-05T00:52:03,42.805,6.029,0.001,-0.056,-0.042,103.0,105.0,101.0,13.3,1505.3,324.6,-0.7,1.8,2470.406,13.33,0.056,179.0
2020-10-05T00:55:03,42.805,6.029,-0.019,-0.049,-0.066,103.0,104.0,102.0,13.4,1505.3,323.2,-0.7,1.8,2470.402,13.33,0.052,201.2
2020-10-05T00:58:03,42.805,6.029,-0.037,-0.032,-0.044,103.0,104.0,101.0,13.3,1505.3,327.3,-0.7,1.8,2470.4,13.33,0.048,229.1
2020-10-05T01:04:03,42.805,6.029,-0.01,-0.014,0.026,104.0,108.0,103.0,13.4,1505.3,326.8,-0.8,1.8,2470.483,13.31,0.017,215.5
2020-10-05T01:07:03,42.805,6.029,0.005,-0.04,-0.008,101.0,105.0,101.0,13.4,1505.3,323.3,-0.7,1.8,2470.424,13.31,0.04,172.9
2020-10-05T01:10:03,42.805,6.029,-0.016,-0.03,-0.028,102.0,104.0,101.0,13.4,1505.3,326.1,-0.7,1.8,2470.437,13.32,0.034,208.1
2020-10-05T01:13:03,42.805,6.029,-0.019,-0.027,-0.026,103.0,103.0,100.0,13.4,1505.3,323.3,-0.7,1.8,2470.393,13.32,0.033,215.1
2020-10-05T01:16:03,42.805,6.029,-0.042,-0.026,-0.031,102.0,102.0,101.0,13.3,1505.3,325.1,-0.7,1.8,2470.445,13.32,0.049,238.2
2020-10-05T01:19:03,42.805,6.029,0.011,-0.04,-0.011,103.0,104.0,100.0,13.3,1505.3,324.0,-0.7,1.9,2470.396,13.32,0.041,164.6
2020-10-05T01:22:03,42.805,6.029,0.002,-0.032,-0.027,103.0,102.0,101.0,13.4,1505.3,326.6,-0.7,1.9,2470.41,13.32,0.032,176.4
2020-10-05T01:25:03,42.805,6.029,-0.009,-0.011,0.017,103.0,103.0,101.0,13.4,1505.3,324.3,-0.7,1.8,2470.39,13.32,0.014,219.3
2020-10-05T01:28:03,42.805,6.029,0.009,-0.026,-0.023,103.0,105.0,101.0,13.4,1505.3,327.2,-0.7,1.8,2470.413,13.32,0.027,160.9
2020-10-05T01:31:03,42.805,6.029,-0.05,-0.041,-0.046,102.0,105.0,101.0,13.3,1505.3,323.2,-0.7,1.9,2470.351,13.32,0.064,230.7
2020-10-05T01:34:03,42.805,6.029,-0.01,-0.032,-0.029,103.0,105.0,101.0,13.3,1505.3,326.4,-0.7,1.8,2470.361,13.32,0.033,197.4
2020-10-05T01:37:03,42.805,6.029,-0.009,-0.031,-0.012,103.0,105.0,101.0,13.4,1505.3,325.5,-0.7,1.8,2470.372,13.32,0.032,196.2
2020-10-05T01:40:03,42.805,6.029,-0.001,-0.025,0.004,103.0,104.0,102.0,13.4,1505.3,325.2,-0.7,1.8,2470.381,13.33,0.025,182.3
2020-10-05T01:43:03,42.805,6.029,-0.008,-0.026,-0.003,103.0,105.0,101.0,13.4,1505.3,326.6,-0.7,1.8,2470.394,13.33,0.027,197.1
2020-10-05T01:46:03,42.805,6.029,-0.022,-0.022,0.016,103.0,102.0,101.0,13.3,1505.3,324.6,-0.7,1.8,2470.373,13.32,0.031,225.0
2020-10-05T01:49:03,42.805,6.029,0.015,-0.037,0.029,101.0,104.0,100.0,13.4,1505.3,326.0,-0.7,1.9,2470.377,13.33,0.039,157.9
2020-10-05T01:52:03,42.805,6.029,0.004,-0.026,0.003,102.0,105.0,100.0,13.4,1505.3,327.9,-0.7,1.8,2470.375,13.33,0.026,171.3
2020-10-05T01:55:03,42.805,6.029,0.008,-0.02,0.005,102.0,104.0,101.0,13.3,1505.3,323.6,-0.7,1.8,2470.363,13.32,0.021,158.2
2020-10-05T01:58:03,42.805,6.029,0.028,-0.04,-0.013,102.0,104.0,100.0,13.4,1505.3,326.9,-0.7,1.8,2470.384,13.33,0.048,145.0
2020-10-05T02:04:03,42.805,6.029,-0.026,-0.037,-0.024,101.0,105.0,100.0,13.4,1505.3,326.3,-0.7,1.8,2470.416,13.31,0.045,215.1
2020-10-05T02:07:03,42.805,6.029,-0.002,-0.039,0.0,104.0,104.0,102.0,13.4,1505.3,326.3,-0.7,1.9,2470.38,13.31,0.039,182.9
2020-10-05T02:10:03,42.805,6.029,-0.012,-0.034,-0.022,103.0,102.0,101.0,13.4,1505.3,323.5,-0.7,1.8,2470.352,13.32,0.036,199.4
2020-10-05T02:13:03,42.805,6.029,-0.005,-0.027,0.039,102.0,103.0,102.0,13.4,1505.3,327.3,-0.7,1.8,2470.357,13.32,0.027,190.5
2020-10-05T02:19:03,42.805,6.029,-0.033,-0.044,-0.061,103.0,103.0,101.0,13.4,1505.3,328.4,-0.8,1.8,2470.433,13.31,0.055,216.9
2020-10-05T02:22:03,42.805,6.029,-0.037,-0.04,0.002,103.0,103.0,100.0,13.4,1505.3,323.5,-0.7,1.8,2470.378,13.31,0.054,222.8
2020-10-05T02:25:03,42.805,6.029,0.0,-0.029,-0.025,102.0,104.0,100.0,13.3,1505.3,327.7,-0.8,1.8,2470.449,13.32,0.028,180.0
2020-10-05T02:28:03,42.805,6.029,-0.039,-0.016,-0.035,102.0,104.0,101.0,13.4,1505.3,324.2,-0.6,1.8,2470.38,13.32,0.042,247.7
2020-10-05T02:31:03,42.805,6.029,-0.03,-0.021,-0.01,103.0,104.0,101.0,13.3,1505.3,327.2,-0.7,1.8,2470.407,13.32,0.036,235.0
2020-10-05T02:34:03,42.805,6.029,-0.026,-0.015,-0.015,101.0,105.0,100.0,13.3,1505.3,324.5,-0.7,1.8,2470.407,13.32,0.03,240.0
2020-10-05T02:37:03,42.805,6.029,0.009,-0.019,0.032,103.0,105.0,99.0,13.3,1505.3,324.6,-0.7,1.8,2470.39,13.33,0.021,154.7
2020-10-05T02:40:03,42.805,6.029,-0.034,-0.037,-0.016,103.0,104.0,101.0,13.4,1505.3,325.8,-0.7,1.8,2470.398,13.33,0.05,222.6
2020-10-05T02:43:03,42.805,6.029,-0.031,-0.03,-0.011,104.0,105.0,101.0,13.4,1505.3,328.5,-0.7,1.9,2470.389,13.33,0.043,225.9
2020-10-05T02:46:03,42.805,6.029,-0.015,-0.03,-0.008,102.0,105.0,101.0,13.4,1505.3,323.5,-0.7,1.9,2470.367,13.33,0.033,206.6
2020-10-05T02:49:03,42.805,6.029,-0.014,-0.033,-0.01,102.0,105.0,102.0,13.4,1505.3,323.7,-0.7,1.8,2470.377,13.33,0.035,203.0
2020-10-05T02:52:03,42.805,6.029,0.002,-0.017,0.016,102.0,105.0,102.0,13.3,1505.3,328.0,-0.7,1.8,2470.387,13.33,0.017,173.3
2020-10-05T02:55:03,42.805,6.029,0.003,-0.032,-0.009,103.0,103.0,101.0,13.4,1505.3,328.1,-0.7,1.8,2470.341,13.33,0.032,174.6
2020-10-05T02:58:03,42.805,6.029,-0.034,-0.024,-0.025,103.0,104.0,101.0,13.4,1505.3,328.2,-0.7,1.8,2470.361,13.33,0.041,234.8
2020-10-05T03:04:03,42.805,6.029,-0.031,-0.039,-0.011,103.0,104.0,101.0,13.4,1505.3,324.5,-0.7,1.8,2470.421,13.31,0.049,218.5
2020-10-05T03:07:03,42.805,6.029,-0.059,-0.02,-0.005,103.0,104.0,101.0,13.3,1505.3,326.1,-0.7,1.8,2470.388,13.31,0.062,251.3
2020-10-05T03:10:03,42.805,6.029,-0.031,-0.039,-0.04,103.0,104.0,100.0,13.3,1505.3,323.4,-0.7,1.8,2470.395,13.32,0.049,218.5
2020-10-05T03:13:03,42.805,6.029,0.0,-0.035,-0.012,103.0,104.0,101.0,13.4,1505.3,323.1,-0.7,1.8,2470.444,13.32,0.035,180.0
2020-10-05T03:16:03,42.805,6.029,-0.015,-0.019,-0.026,103.0,105.0,101.0,13.3,1505.3,326.9,-0.7,1.8,2470.397,13.32,0.024,218.3
2020-10-05T03:19:03,42.805,6.029,-0.028,-0.003,0.013,103.0,104.0,101.0,13.3,1505.3,328.4,-0.7,1.8,2470.402,13.32,0.028,263.9
2020-10-05T03:22:03,42.805,6.029,-0.017,-0.008,-0.013,104.0,105.0,101.0,13.3,1505.3,326.7,-0.7,1.8,2470.372,13.33,0.018,244.8
2020-10-05T03:25:03,42.805,6.029,-0.005,-0.042,-0.022,103.0,105.0,101.0,13.3,1505.3,324.1,-0.7,1.8,2470.387,13.33,0.042,186.8
2020-10-05T03:28:03,42.805,6.029,-0.008,-0.04,-0.011,103.0,105.0,100.0,13.4,1505.3,328.0,-0.7,1.8,2470.332,13.33,0.04,191.3
2020-10-05T03:31:03,42.805,6.029,0.001,-0.012,-0.006,102.0,103.0,100.0,13.3,1505.3,324.9,-0.7,1.8,2470.38,13.33,0.012,175.2
2020-10-05T03:34:03,42.805,6.029,-0.038,-0.024,-0.052,103.0,104.0,100.0,13.4,1505.3,327.6,-0.7,1.8,2470.384,13.33,0.044,237.7
2020-10-05T03:37:03,42.805,6.029,-0.024,-0.047,-0.043,102.0,104.0,100.0,13.3,1505.3,326.5,-0.7,1.8,2470.397,13.33,0.052,207.0
2020-10-05T03:40:03,42.805,6.029,-0.035,-0.053,-0.04,102.0,105.0,101.0,13.4,1505.3,327.6,-0.7,1.8,2470.336,13.33,0.063,213.4
2020-10-05T03:43:03,42.805,6.029,-0.025,-0.016,-0.027,102.0,104.0,100.0,13.3,1505.3,325.4,-0.7,1.8,2470.354,13.33,0.029,237.4
2020-10-05T03:46:03,42.805,6.029,-0.074,-0.028,-0.05,103.0,105.0,100.0,13.4,1505.3,323.5,-0.7,1.8,2470.358,13.33,0.079,249.3
2020-10-05T03:49:03,42.805,6.029,-0.055,-0.023,-0.038,104.0,104.0,100.0,13.4,1505.3,325.7,-0.7,1.8,2470.352,13.33,0.059,247.3
2020-10-05T03:52:03,42.805,6.029,-0.032,-0.024,-0.032,102.0,104.0,101.0,13.3,1505.3,327.5,-0.7,1.8,2470.396,13.33,0.04,233.1
2020-10-05T03:55:03,42.805,6.029,-0.069,-0.015,-0.039,102.0,106.0,101.0,13.3,1505.3,323.8,-0.7,1.8,2470.363,13.33,0.07,257.7
2020-10-05T03:58:03,42.805,6.029,-0.034,-0.038,-0.025,103.0,105.0,102.0,13.4,1505.3,324.4,-0.7,1.8,2470.397,13.33,0.05,221.8
2020-10-05T04:04:03,42.805,6.029,-0.004,-0.001,0.047,103.0,104.0,102.0,13.3,1505.3,324.1,-0.7,1.8,2470.422,13.31,0.004,256.0
2020-10-05T04:07:03,42.805,6.029,-0.035,-0.019,-0.02,102.0,104.0,101.0,13.4,1505.3,324.8,-0.7,1.9,2470.416,13.31,0.039,241.5
2020-10-05T04:10:03,42.805,6.029,-0.038,-0.021,-0.026,102.0,106.0,101.0,13.3,1505.3,324.5,-0.7,1.9,2470.443,13.32,0.043,241.1
2020-10-05T04:13:03,42.805,6.029,-0.029,0.001,0.027,102.0,105.0,101.0,13.4,1505.3,326.3,-0.8,1.8,2470.391,13.32,0.029,272.0
2020-10-05T04:16:03,42.805,6.029,0.014,-0.024,0.008,102.0,104.0,103.0,13.4,1505.3,328.0,-0.7,1.8,2470.405,13.32,0.027,149.7
2020-10-05T04:19:03,42.805,6.029,-0.032,0.0,-0.018,103.0,105.0,100.0,13.4,1505.3,324.0,-0.7,1.8,2470.42,13.32,0.032,270.0
2020-10-05T04:22:03,42.805,6.029,-0.012,-0.025,-0.011,101.0,107.0,101.0,13.3,1505.3,326.3,-0.7,1.8,2470.423,13.32,0.027,205.6
2020-10-05T04:25:03,42.805,6.029,-0.044,-0.016,-0.023,104.0,104.0,100.0,13.3,1505.3,324.3,-0.7,1.8,2470.379,13.32,0.046,250.0
2020-10-05T04:28:03,42.805,6.029,-0.023,-0.03,-0.002,102.0,104.0,101.0,13.4,1505.3,326.0,-0.7,1.8,2470.381,13.32,0.037,217.5
2020-10-05T04:31:03,42.805,6.029,-0.023,-0.014,0.002,102.0,104.0,101.0,13.3,1505.3,327.6,-0.7,1.8,2470.403,13.33,0.026,238.7
2020-10-05T04:34:03,42.805,6.029,-0.026,-0.022,-0.013,104.0,104.0,101.0,13.4,1505.3,324.2,-0.7,1.8,2470.387,13.33,0.034,229.8
2020-10-05T04:37:03,42.805,6.029,-0.031,-0.015,-0.008,102.0,104.0,101.0,13.3,1505.3,325.2,-0.7,1.8,2470.381,13.33,0.034,244.2
2020-10-05T04:40:03,42.805,6.029,-0.06,-0.018,-0.019,102.0,105.0,100.0,13.4,1505.3,323.9,-0.7,1.8,2470.388,13.33,0.062,253.3
2020-10-05T04:43:03,42.805,6.029,0.025,-0.034,0.019,102.0,105.0,100.0,13.4,1505.3,326.7,-0.7,1.8,2470.372,13.33,0.042,143.7
2020-10-05T04:46:03,42.805,6.029,-0.023,-0.014,-0.023,101.0,104.0,102.0,13.3,1505.3,326.1,-0.7,1.8,2470.371,13.33,0.026,238.7
2020-10-05T04:49:03,42.805,6.029,-0.028,-0.025,-0.004,103.0,107.0,101.0,13.4,1505.3,327.2,-0.7,1.9,2470.397,13.33,0.037,228.2
2020-10-05T04:52:03,42.805,6.029,-0.008,-0.032,0.006,104.0,105.0,101.0,13.3,1505.3,327.2,-0.7,1.8,2470.374,13.33,0.032,194.0
2020-10-05T04:55:03,42.805,6.029,-0.067,-0.003,-0.038,102.0,105.0,101.0,13.3,1505.3,326.6,-0.7,1.8,2470.378,13.33,0.067,267.4
2020-10-05T04:58:03,42.805,6.029,-0.035,-0.02,-0.006,103.0,104.0,102.0,13.3,1505.3,328.2,-0.7,1.8,2470.4,13.33,0.04,240.3
2020-10-05T05:04:03,42.805,6.029,-0.061,-0.014,-0.016,102.0,105.0,101.0,13.4,1505.3,327.2,-0.7,1.8,2470.417,13.31,0.062,257.1
2020-10-05T05:07:03,42.805,6.029,-0.056,-0.012,-0.026,103.0,105.0,102.0,13.4,1505.3,327.4,-0.7,1.8,2470.399,13.31,0.057,257.9
2020-10-05T05:10:03,42.805,6.029,-0.051,-0.008,-0.045,103.0,106.0,101.0,13.4,1505.3,325.4,-0.7,1.8,2470.404,13.32,0.051,261.1
2020-10-05T05:13:03,42.805,6.029,-0.038,-0.021,-0.02,103.0,105.0,101.0,13.4,1505.3,324.1,-0.7,1.8,2470.418,13.32,0.043,241.1
2020-10-05T05:16:03,42.805,6.029,-0.025,-0.002,0.008,102.0,106.0,101.0,13.3,1505.3,323.3,-0.7,1.8,2470.427,13.32,0.025,265.4
2020-10-05T05:19:03,42.805,6.029,-0.028,-0.002,0.008,104.0,106.0,101.0,13.3,1505.3,324.0,-0.7,1.9,2470.414,13.33,0.028,265.9
2020-10-05T05:22:03,42.805,6.029,-0.023,-0.014,-0.002,105.0,106.0,101.0,13.4,1505.3,327.3,-0.7,1.9,2470.443,13.33,0.026,238.7
2020-10-05T05:25:03,42.805,6.029,-0.023,0.0,0.031,102.0,106.0,101.0,13.4,1505.3,324.1,-0.7,1.8,2470.396,13.33,0.023,270.0
2020-10-05T05:28:03,42.805,6.029,-0.033,-0.011,0.0,103.0,105.0,101.0,13.4,1505.3,324.9,-0.7,1.8,2470.442,13.33,0.034,251.6
2020-10-05T05:31:03,42.805,6.029,-0.033,0.012,-0.01,103.0,107.0,102.0,13.4,1505.3,327.3,-0.7,1.8,2470.416,13.33,0.035,290.0
2020-10-05T05:34:03,42.805,6.029,-0.024,0.002,0.028,103.0,106.0,102.0,13.3,1505.3,325.2,-0.7,1.8,2470.411,13.33,0.024,274.8
2020-10-05T05:37:03,42.805,6.029,-0.03,0.013,-0.01,102.0,108.0,100.0,13.4,1505.3,325.4,-0.7,1.8,2470.407,13.33,0.032,293.4
2020-10-05T05:40:03,42.805,6.029,-0.016,-0.003,0.014,101.0,106.0,101.0,13.4,1505.3,326.3,-0.7,1.9,2470.415,13.33,0.016,259.4
2020-10-05T05:43:03,42.805,6.029,-0.027,-0.011,-0.037,102.0,106.0,101.0,13.4,1505.3,325.3,-0.7,1.9,2470.418,13.33,0.029,247.8
2020-10-05T05:46:03,42.805,6.029,-0.028,0.011,-0.013,102.0,106.0,100.0,13.4,1505.3,327.4,-0.7,1.8,2470.399,13.33,0.03,291.4
2020-10-05T05:49:03,42.805,6.029,-0.042,-0.009,-0.017,103.0,107.0,101.0,13.3,1505.3,327.1,-0.7,1.8,2470.443,13.33,0.042,257.9
2020-10-05T05:52:03,42.805,6.029,-0.015,0.01,0.036,104.0,106.0,101.0,13.4,1505.3,323.8,-0.7,1.8,2470.429,13.33,0.018,303.7
2020-10-05T05:55:03,42.805,6.029,-0.041,-0.001,-0.026,103.0,105.0,100.0,13.3,1505.3,324.0,-0.7,1.8,2470.421,13.33,0.041,268.6
2020-10-05T05:58:03,42.805,6.029,-0.043,0.004,-0.01,103.0,106.0,100.0,13.4,1505.3,323.4,-0.7,1.8,2470.494,13.33,0.043,275.3
2020-10-05T06:04:03,42.805,6.029,-0.044,0.009,0.018,104.0,107.0,102.0,13.3,1505.3,327.3,-0.7,1.8,2470.448,13.31,0.044,281.6
2020-10-05T06:07:03,42.805,6.029,-0.02,0.013,0.002,103.0,107.0,101.0,13.4,1505.3,323.9,-0.7,1.8,2470.479,13.32,0.023,303.0
2020-10-05T06:10:03,42.805,6.029,-0.026,-0.02,0.006,102.0,106.0,101.0,13.3,1505.3,325.9,-0.7,1.8,2470.441,13.32,0.032,232.4
2020-10-05T06:13:03,42.805,6.029,-0.022,0.02,0.016,102.0,106.0,101.0,13.3,1505.3,324.5,-0.7,1.8,2470.449,13.32,0.029,312.3
2020-10-05T06:16:03,42.805,6.029,-0.035,0.001,-0.013,103.0,107.0,100.0,13.3,1505.3,324.8,-0.7,1.8,2470.438,13.33,0.035,271.6
2020-10-05T06:19:03,42.805,6.029,-0.031,0.005,0.028,103.0,107.0,100.0,13.4,1505.3,327.3,-0.7,1.8,2470.487,13.33,0.031,279.2
2020-10-05T06:22:03,42.805,6.029,-0.052,0.001,-0.011,102.0,106.0,101.0,13.3,1505.3,324.5,-0.7,1.8,2470.463,13.33,0.052,271.1
2020-10-05T06:25:03,42.805,6.029,-0.004,0.0,-0.004,102.0,107.0,101.0,13.3,1505.3,324.1,-0.7,1.8,2470.466,13.33,0.004,270.0
2020-10-05T06:28:03,42.805,6.029,-0.03,0.023,0.009,104.0,106.0,99.0,13.4,1505.3,327.8,-0.7,1.8,2470.462,13.33,0.037,307.5
2020-10-05T06:31:03,42.805,6.029,-0.02,0.011,0.013,102.0,108.0,101.0,13.4,1505.3,324.5,-0.7,1.8,2470.461,13.33,0.022,298.8
2020-10-05T06:34:03,42.805,6.029,-0.035,0.007,-0.003,103.0,107.0,100.0,13.3,1505.3,326.5,-0.7,1.8,2470.487,13.33,0.035,281.3
2020-10-05T06:37:03,42.805,6.029,-0.042,-0.002,0.011,103.0,110.0,101.0,13.3,1505.3,326.5,-0.7,1.8,2470.493,13.33,0.042,267.3
2020-10-05T06:40:03,42.805,6.029,-0.043,0.012,-0.025,102.0,108.0,100.0,13.4,1505.3,325.6,-0.7,1.8,2470.479,13.33,0.044,285.6
2020-10-05T06:43:03,42.805,6.029,-0.034,0.011,0.013,104.0,108.0,102.0,13.4,1505.3,327.9,-0.7,1.8,2470.481,13.33,0.035,287.9
2020-10-05T06:46:03,42.805,6.029,-0.053,-0.012,-0.045,102.0,108.0,100.0,13.4,1505.3,323.3,-0.7,1.8,2470.498,13.33,0.054,257.2
2020-10-05T06:49:03,42.805,6.029,-0.011,0.012,0.004,103.0,108.0,101.0,13.4,1505.3,326.1,-0.7,1.8,2470.499,13.33,0.016,317.5
2020-10-05T06:52:03,42.805,6.029,-0.023,0.006,-0.01,103.0,108.0,100.0,13.4,1505.3,322.7,-0.7,1.8,2470.492,13.33,0.023,284.6
2020-10-05T06:55:03,42.805,6.029,-0.041,0.025,-0.004,103.0,109.0,101.0,13.4,1505.3,324.9,-0.7,1.8,2470.488,13.33,0.048,301.4
2020-10-05T06:58:03,42.805,6.029,-0.028,0.004,0.009,103.0,111.0,101.0,13.4,1505.3,322.6,-0.7,1.8,2470.46,13.33,0.028,278.1
2020-10-05T07:04:03,42.805,6.029,-0.045,0.013,0.029,103.0,109.0,101.0,13.4,1505.3,323.4,-0.7,1.8,2470.576,13.31,0.046,286.1
2020-10-05T07:07:03,42.805,6.029,-0.023,0.017,-0.006,101.0,107.0,101.0,13.4,1505.3,324.6,-0.7,1.8,2470.518,13.31,0.028,306.5
2020-10-05T07:10:03,42.805,6.029,-0.05,0.003,0.0,103.0,110.0,100.0,13.4,1505.3,324.1,-0.7,1.8,2470.535,13.32,0.05,273.4
2020-10-05T07:13:03,42.805,6.029,-0.018,0.028,-0.001,103.0,109.0,101.0,13.4,1505.3,326.9,-0.7,1.8,2470.545,13.32,0.033,327.3
2020-10-05T07:16:03,42.805,6.029,-0.047,0.016,-0.012,102.0,109.0,101.0,13.4,1505.3,327.4,-0.7,1.8,2470.489,13.33,0.049,288.8
2020-10-05T07:19:03,42.805,6.029,-0.051,-0.006,-0.01,101.0,109.0,101.0,13.4,1505.3,323.1,-0.7,1.8,2470.524,13.33,0.051,263.3
2020-10-05T07:22:03,42.805,6.029,-0.064,0.007,-0.018,102.0,112.0,101.0,13.4,1505.3,324.2,-0.7,1.8,2470.53,13.33,0.064,276.2
2020-10-05T07:25:03,42.805,6.029,-0.023,0.014,0.008,101.0,109.0,102.0,13.4,1505.3,327.1,-0.7,1.9,2470.51,13.33,0.026,301.3
2020-10-05T07:28:03,42.805,6.029,-0.037,0.012,0.014,103.0,109.0,101.0,13.4,1505.3,325.8,-0.7,1.8,2470.52,13.33,0.038,288.0
2020-10-05T07:31:03,42.805,6.029,-0.054,0.005,0.001,102.0,109.0,101.0,13.4,1505.3,327.2,-0.7,1.8,2470.503,13.33,0.054,275.3
2020-10-05T07:34:03,42.805,6.029,-0.024,0.02,0.053,103.0,112.0,100.0,13.4,1505.3,324.4,-0.7,1.8,2470.504,13.33,0.031,309.8
2020-10-05T07:37:03,42.805,6.029,-0.033,0.031,0.046,103.0,111.0,100.0,13.4,1505.3,327.3,-0.7,1.8,2470.531,13.33,0.045,313.2
2020-10-05T07:40:03,42.805,6.029,-0.077,0.012,-0.02,102.0,110.0,102.0,13.4,1505.3,323.1,-0.7,1.8,2470.548,13.33,0.077,278.9
2020-10-05T07:43:03,42.805,6.029,-0.044,0.015,-0.023,103.0,108.0,100.0,13.4,1505.3,326.7,-0.7,1.8,2470.53,13.33,0.046,288.8
2020-10-05T07:46:03,42.805,6.029,-0.047,0.0,-0.012,102.0,112.0,101.0,13.4,1505.3,324.8,-0.7,1.8,2470.52,13.33,0.047,270.0
2020-10-05T07:49:03,42.805,6.029,-0.032,-0.002,-0.013,104.0,110.0,101.0,13.4,1505.3,327.1,-0.7,1.8,2470.537,13.33,0.032,266.4
2020-10-05T07:52:03,42.805,6.029,-0.024,0.024,-0.016,102.0,112.0,99.0,13.4,1505.3,326.7,-0.7,1.8,2470.542,13.33,0.033,315.0
2020-10-05T07:55:03,42.805,6.029,-0.011,0.009,0.0,103.0,111.0,102.0,13.4,1505.3,323.5,-0.7,1.8,2470.535,13.33,0.014,309.3
2020-10-05T07:58:03,42.805,6.029,-0.033,0.009,-0.019,104.0,110.0,101.0,13.3,1505.3,326.9,-0.7,1.8,2470.513,13.33,0.034,285.3
2020-10-05T08:04:03,42.805,6.029,-0.038,0.021,-0.002,103.0,111.0,101.0,13.4,1505.3,324.9,-0.7,1.8,2470.563,13.31,0.043,298.9
2020-10-05T08:07:03,42.805,6.029,-0.045,0.002,-0.009,102.0,111.0,101.0,13.4,1505.3,324.8,-0.7,1.8,2470.542,13.32,0.045,272.5
2020-10-05T08:10:03,42.805,6.029,-0.017,0.021,-0.005,101.0,112.0,100.0,13.3,1505.3,324.5,-0.7,1.8,2470.529,13.32,0.027,321.0
2020-10-05T08:13:03,42.805,6.029,-0.064,-0.007,-0.036,102.0,114.0,101.0,13.3,1505.3,324.2,-0.7,1.9,2470.58,13.33,0.064,263.8
2020-10-05T08:16:03,42.805,6.029,-0.044,0.013,-0.019,102.0,110.0,101.0,13.4,1505.3,324.2,-0.7,1.8,2470.53,13.33,0.045,286.5
2020-10-05T08:19:03,42.805,6.029,-0.046,0.007,-0.03,102.0,112.0,102.0,13.4,1505.3,325.7,-0.7,1.8,2470.538,13.33,0.046,278.7
2020-10-05T08:22:03,42.805,6.029,-0.032,0.007,0.003,103.0,111.0,101.0,13.4,1505.3,323.2,-0.7,1.8,2470.517,13.33,0.032,282.3
2020-10-05T08:25:03,42.805,6.029,-0.016,0.015,-0.012,102.0,110.0,101.0,13.4,1505.3,324.0,-0.7,1.8,2470.579,13.33,0.021,313.1
2020-10-05T08:28:03,42.805,6.029,-0.007,0.021,0.009,102.0,113.0,100.0,13.4,1505.3,323.6,-0.7,1.8,2470.555,13.33,0.022,341.6
2020-10-05T08:31:03,42.805,6.029,-0.051,-0.006,-0.016,102.0,109.0,101.0,13.4,1505.3,323.2,-0.7,1.9,2470.518,13.33,0.051,263.3
2020-10-05T08:34:03,42.805,6.029,0.007,0.007,-0.008,104.0,110.0,101.0,13.4,1505.3,325.5,-0.7,1.8,2470.541,13.33,0.009,45.0
2020-10-05T08:37:03,42.805,6.029,-0.03,0.015,-0.008,102.0,111.0,101.0,13.3,1505.3,325.5,-0.7,1.8,2470.536,13.33,0.033,296.6
2020-10-05T08:40:03,42.805,6.029,-0.02,0.017,-0.008,102.0,112.0,102.0,13.4,1505.3,326.1,-0.7,1.8,2470.502,13.33,0.026,310.4
2020-10-05T08:43:03,42.805,6.029,-0.027,0.019,-0.029,103.0,111.0,100.0,13.4,1505.3,325.6,-0.7,1.8,2470.538,13.33,0.033,305.1
2020-10-05T08:46:03,42.805,6.029,-0.032,0.0,-0.012,103.0,110.0,100.0,13.3,1505.3,324.5,-0.7,1.8,2470.565,13.33,0.032,270.0
2020-10-05T08:49:03,42.805,6.029,-0.027,0.024,-0.009,102.0,110.0,101.0,13.4,1505.3,325.2,-0.6,1.9,2470.534,13.33,0.036,311.6
2020-10-05T08:52:03,42.805,6.029,-0.01,0.01,-0.016,102.0,110.0,100.0,13.4,1505.3,326.7,-0.7,1.8,2470.515,13.33,0.014,315.0
2020-10-05T08:55:03,42.805,6.029,-0.035,0.017,0.0,101.0,111.0,101.0,13.4,1505.3,325.6,-0.7,1.8,2470.534,13.33,0.038,295.9
2020-10-05T08:58:03,42.805,6.029,-0.037,0.027,-0.001,103.0,109.0,101.0,13.4,1505.3,326.7,-0.7,1.8,2470.557,13.33,0.045,306.1
2020-10-05T09:04:03,42.805,6.029,-0.055,0.019,-0.024,102.0,111.0,101.0,13.4,1505.3,323.3,-0.7,1.8,2470.575,13.31,0.058,289.1
2020-10-05T09:07:03,42.805,6.029,-0.059,0.024,-0.019,102.0,111.0,100.0,13.3,1505.3,326.5,-0.7,1.8,2470.559,13.32,0.063,292.1
2020-10-05T09:10:03,42.805,6.029,-0.014,0.015,0.001,103.0,110.0,99.0,13.3,1505.3,327.4,-0.7,1.8,2470.608,13.32,0.02,317.0
2020-10-05T09:13:03,42.805,6.029,-0.026,0.029,0.016,102.0,108.0,100.0,13.4,1505.3,327.2,-0.7,1.8,2470.569,13.32,0.038,318.1
2020-10-05T09:19:03,42.805,6.029,-0.019,0.005,-0.016,104.0,113.0,100.0,13.3,1505.3,326.4,-0.7,1.8,2470.625,13.31,0.019,284.7
2020-10-05T09:22:03,42.805,6.029,-0.01,0.024,-0.015,103.0,110.0,101.0,13.3,1505.3,324.8,-0.7,1.8,2470.56,13.31,0.026,337.4
2020-10-05T09:25:03,42.805,6.029,-0.007,0.026,0.002,103.0,112.0,100.0,13.4,1505.3,326.9,-0.7,1.8,2470.537,13.32,0.026,344.9
2020-10-05T09:28:03,42.805,6.029,-0.008,0.016,0.001,102.0,111.0,102.0,13.4,1505.3,325.2,-0.7,1.8,2470.591,13.32,0.017,333.4
2020-10-05T09:31:03,42.805,6.029,-0.031,0.036,-0.012,102.0,109.0,101.0,13.4,1505.3,326.3,-0.7,1.8,2470.54,13.33,0.047,319.3
2020-10-05T09:34:03,42.805,6.029,-0.017,0.017,-0.019,104.0,109.0,100.0,13.4,1505.3,324.0,-0.7,1.8,2470.546,13.33,0.024,315.0
2020-10-05T09:37:03,42.805,6.029,-0.011,0.026,0.005,103.0,111.0,102.0,13.4,1505.3,324.2,-0.7,1.8,2470.509,13.33,0.028,337.1
2020-10-05T09:40:03,42.805,6.029,-0.032,0.015,0.001,103.0,109.0,100.0,13.3,1505.3,323.7,-0.7,1.8,2470.554,13.33,0.035,295.1
2020-10-05T09:43:03,42.805,6.029,-0.052,0.031,0.0,102.0,110.0,101.0,13.4,1505.3,327.6,-0.7,1.8,2470.545,13.33,0.06,300.8
2020-10-05T09:46:03,42.805,6.029,0.0,0.04,0.0,102.0,108.0,101.0,13.4,1505.3,323.5,-0.7,1.8,2470.54,13.33,0.04,0.0
2020-10-05T09:49:03,42.805,6.029,-0.021,0.022,0.01,101.0,110.0,101.0,13.4,1505.3,327.5,-0.7,1.8,2470.518,13.33,0.03,316.3
2020-10-05T09:52:03,42.805,6.029,-0.036,0.008,0.006,102.0,110.0,100.0,13.4,1505.3,327.9,-0.7,1.8,2470.51,13.33,0.036,282.5
2020-10-05T09:55:03,42.805,6.029,-0.009,0.008,0.024,102.0,110.0,102.0,13.4,1505.3,328.5,-0.7,1.8,2470.497,13.33,0.012,311.6
2020-10-05T09:58:03,42.805,6.029,0.006,0.003,-0.009,102.0,109.0,101.0,13.4,1505.3,325.3,-0.7,1.8,2470.507,13.33,0.006,63.4
2020-10-05T10:04:03,42.805,6.029,-0.02,0.031,0.025,101.0,112.0,101.0,13.4,1505.3,325.7,-0.7,1.8,2470.553,13.31,0.036,327.2